Flag for U.S.A. Weather past 2 weeks in Port Angeles, Washington, U.S.A.

Now
44 °F

Clear.


Feels Like: 40 °F
Forecast: 43 / 54 °F
Wind: 7 mph from Southwest

Location: William R. Fairchild International Airport

Current Time: Apr 26, 2015 at 12:04:55 AM

Latest Report: Apr 25, 2015 at 10:53 PM


Visibility: 10 mi

Pressure: 30.08 "Hg

Humidity: 82%

Dew point: 39 °F

Location of Port AngelesLocation

Historic Weather in Port Angeles — Graph

°F

Port Angeles temperature yesterday

Maximum temperature yesterday: 53 °F (at 2:53 PM)
Minimum temperature yesterday: 42 °F (at 12:53 AM)
Average temperature yesterday: 47 °F

Past Weeks' High & Low Weather Summary

 TemperatureHumidityPressure
High67 °F (Apr 20, 3:53 PM)96% (Apr 12, 11:53 PM)30.55 "Hg (Apr 12, 11:53 PM)
Low37 °F (Apr 18, 5:53 AM)39% (Apr 19, 4:53 PM)29.71 "Hg (Apr 24, 3:53 AM)
Average48 °F70%30.10 "Hg
* Reported Apr 10 10:53 PM — Apr 25 10:53 PM, Port Angeles, Weather by CustomWeather, © 2015

Note: Actual official high and low records may vary slightly from our data, if they occured in-between our weather recording intervals... More about our weather records

Advertising

Port Angeles weather history for previous 24 hours

 ConditionsComfort  
Time TempWeatherWind HumidityBarometerVisibility
10:53 PM
Sat, Apr 25
44 °FClear.7 mph82%30.08 "Hg10 mi
9:53 PM42 °FClear.6 mph85%30.08 "Hg10 mi
8:53 PM45 °FSunny.5 mph82%30.07 "Hg10 mi
7:53 PM47 °FSunny.3 mph80%30.06 "Hg10 mi
6:53 PM51 °FSunny.3 mph69%30.04 "Hg10 mi
5:53 PM51 °FSunny.6 mph63%30.03 "Hg10 mi
4:53 PM52 °FSunny.7 mph53%30.03 "Hg10 mi
3:53 PM52 °FSunny.6 mph59%30.02 "Hg10 mi
2:53 PM53 °FSunny.6 mph56%30.02 "Hg10 mi
1:53 PM52 °FPartly sunny.7 mph64%30.01 "Hg10 mi
12:53 PM51 °FSunny.6 mph71%30.01 "Hg10 mi
11:53 AM51 °FSunny.6 mph66%29.99 "Hg10 mi
10:53 AM51 °FPassing clouds.9 mph69%29.98 "Hg10 mi
9:53 AM50 °FScattered clouds.7 mph66%29.97 "Hg10 mi
8:53 AM49 °FPartly sunny.8 mph64%29.96 "Hg10 mi
7:53 AM44 °FMore clouds than sun.12 mph71%29.95 "Hg10 mi
6:53 AM42 °FPassing clouds.12 mph76%29.93 "Hg10 mi
5:53 AM43 °FMostly cloudy.12 mph71%29.91 "Hg10 mi
4:53 AM42 °FOvercast.12 mph73%29.90 "Hg10 mi
3:53 AM43 °FPassing clouds.12 mph71%29.90 "Hg10 mi
2:53 AM42 °FClear.10 mph73%29.89 "Hg10 mi
1:53 AM42 °FClear.10 mph76%29.89 "Hg10 mi
12:53 AM42 °FClear.14 mph79%29.88 "Hg10 mi
Weather by CustomWeather, © 2015

See weather overviewHow to use our weather pages